Weather reports worldwide

Advertisment
Coleshill, United Kingdom (3535): temperature & dewpoint: 12.09.2019 05:00:00 - 18.09.2019 05:00:00 (BST)Coleshill, United Kingdom (3535): temperature -20cm & temperature -100cm: 12.09.2019 05:00:00 - 18.09.2019 05:00:00 (BST)Coleshill, United Kingdom (3535): wind speed: 12.09.2019 05:00:00 - 18.09.2019 05:00:00 (BST)Coleshill, United Kingdom (3535): wind direction: 12.09.2019 05:00:00 - 18.09.2019 05:00:00 (BST)Coleshill, United Kingdom (3535): reduced air pressure: 12.09.2019 05:00:00 - 18.09.2019 05:00:00 (BST)Coleshill, United Kingdom (3535): visibility: 12.09.2019 05:00:00 - 18.09.2019 05:00:00 (BST)Coleshill, United Kingdom (3535): precipitation: 12.09.2019 05:00:00 - 18.09.2019 05:00:00 (BST)
Date & Time tt [°C] td [°C] tt -20cm [°C] tt -100cm [°C] ff [km/h] ff [kn] dd ppp [hPa] vv [km] rr [mm]
18.09.2019 05:00:00 - - - - - - - - - -
18.09.2019 04:00:00 4,4 4,1 - - 0 0 N 1029,8 6 0,0
18.09.2019 03:00:00 5,2 5,0 - - 2 1 NE 1029,6 10 0,0
18.09.2019 02:00:00 5,8 5,2 - - 0 0 N 1029,4 11 0,0
18.09.2019 01:00:00 6,5 5,6 - - 4 2 NNE 1029,6 18 0,0
18.09.2019 00:00:00 7,9 5,8 - - 4 2 SSE 1029,1 14 0,0
17.09.2019 23:00:00 8,8 6,1 - - 4 2 SSE 1029,0 25 0,0
17.09.2019 22:00:00 9,8 6,9 - - 5 3 ENE 1028,6 15 0,0
17.09.2019 21:00:00 10,8 7,2 - - 8 4 NNW 1027,7 30 0,0
17.09.2019 20:00:00 11,6 7,0 - - 5 3 NNW 1027,2 30 0,0
17.09.2019 19:00:00 13,3 7,1 - - 8 4 NNW 1026,6 35 0,0
17.09.2019 18:00:00 15,5 7,4 - - 13 7 NNW 1026,4 40 0,0
17.09.2019 17:00:00 16,8 7,2 - - 15 8 N 1026,1 35 0,0
17.09.2019 16:00:00 16,9 6,5 - - 16 9 N 1026,1 30 0,0
17.09.2019 15:00:00 16,8 6,0 - - 18 10 N 1026,1 40 0,0
17.09.2019 14:00:00 16,7 7,7 - - 16 9 N 1026,1 35 0,0
17.09.2019 13:00:00 15,4 7,4 - - 18 10 NNW 1026,2 35 0,0
17.09.2019 12:00:00 15,3 8,3 - - 18 10 NNW 1026,3 30 0,0
17.09.2019 11:00:00 14,6 8,7 - - 18 10 NNW 1026,3 30 0,0
17.09.2019 10:00:00 13,1 8,3 15,7 16,0 16 9 NNW 1026,1 35 0,0
17.09.2019 09:00:00 11,7 9,1 - - 9 5 NW 1025,9 21 0,0
17.09.2019 08:00:00 8,6 8,4 - - 2 1 SW 1025,6 15 0,0
17.09.2019 07:00:00 7,5 6,3 - - 2 1 W 1025,3 8 0,0
17.09.2019 06:00:00 8,4 7,6 - - 4 2 W 1024,7 18 0,0
17.09.2019 05:00:00 8,3 7,8 - - 4 2 NW 1024,7 21 0,0
17.09.2019 04:00:00 7,6 7,2 - - 5 3 WNW 1024,7 17 0,0
17.09.2019 03:00:00 8,2 7,3 - - 5 3 W 1024,6 18 0,0
17.09.2019 02:00:00 8,6 7,6 - - 9 5 W 1024,6 17 0,0
17.09.2019 01:00:00 8,2 7,4 - - 5 3 W 1024,5 22 0,0
17.09.2019 00:00:00 8,6 6,7 - - 4 2 WNW 1024,3 27 0,0
16.09.2019 23:00:00 10,7 8,2 - - 11 6 NW 1024,3 30 0,0
16.09.2019 22:00:00 11,3 8,1 - - 11 6 NW 1024,2 45 0,0
16.09.2019 21:00:00 13,5 10,1 - - 8 4 NW 1024,0 30 0,0
16.09.2019 20:00:00 13,9 10,2 - - 13 7 NW 1023,7 30 0,0
16.09.2019 19:00:00 14,4 11,7 - - 8 4 NW 1023,0 30 0,0
16.09.2019 18:00:00 14,7 11,7 - - 8 4 NW 1022,7 28 0,0
16.09.2019 17:00:00 14,5 12,5 - - 11 6 NNW 1023,0 13 0,0
16.09.2019 16:00:00 15,0 12,7 - - 8 4 N 1022,8 17 0,0
16.09.2019 15:00:00 14,8 12,5 - - 5 3 N 1022,7 12 0,0
16.09.2019 14:00:00 14,7 12,7 - - 9 5 N 1023,1 12 0,0
16.09.2019 13:00:00 14,3 12,9 - - 9 5 N 1022,7 20 0,0
16.09.2019 12:00:00 13,5 12,8 - - 9 5 N 1022,7 8 0,0
16.09.2019 11:00:00 13,7 13,2 - - 11 6 N 1022,5 7 0,0
16.09.2019 10:00:00 13,7 13,4 16,5 16,0 11 6 N 1022,2 3,6 0,2
16.09.2019 09:00:00 13,4 13,3 - - 5 3 N 1021,7 2,8 0,0
16.09.2019 08:00:00 13,6 13,3 - - 5 3 N 1021,3 1,8 0,0
16.09.2019 07:00:00 14,7 14,1 - - 5 3 WNW 1020,9 9 0,2
16.09.2019 06:00:00 15,1 14,6 - - 4 2 SW 1020,6 17 0,0
16.09.2019 05:00:00 15,2 14,6 - - 4 2 WSW 1020,8 22 0,0
16.09.2019 04:00:00 15,3 14,7 - - 4 2 SW 1021,2 21 0,0
16.09.2019 03:00:00 15,3 14,8 - - 4 2 SW 1021,7 18 0,4
16.09.2019 02:00:00 15,5 14,8 - - 4 2 WSW 1021,9 13 0,0
16.09.2019 01:00:00 15,6 14,9 - - 4 2 SW 1022,0 21 0,4
16.09.2019 00:00:00 15,6 14,8 - - 2 1 SW 1022,4 15 0,8
15.09.2019 23:00:00 16,3 14,4 - - 4 2 SW 1022,5 21 0,0
15.09.2019 22:00:00 15,4 13,8 - - 4 2 S 1022,3 40 0,0
15.09.2019 21:00:00 16,2 13,9 - - 2 1 W 1022,5 40 0,0
15.09.2019 20:00:00 17,2 14,2 - - 2 1 W 1022,7 40 0,0
15.09.2019 19:00:00 17,8 14,5 - - 9 5 NW 1023,0 40 0,0
15.09.2019 18:00:00 18,4 15,0 - - 9 5 N 1022,7 50 0,0
15.09.2019 17:00:00 20,2 14,6 - - 11 6 W 1022,6 50 0,0
15.09.2019 16:00:00 20,8 14,4 - - 11 6 WSW 1022,8 50 0,0
15.09.2019 15:00:00 20,5 14,6 - - 8 4 SW 1023,0 45 0,0
15.09.2019 14:00:00 20,7 14,1 - - 11 6 SW 1023,6 45 0,0
15.09.2019 13:00:00 20,0 14,2 - - 8 4 W 1024,0 40 0,0
15.09.2019 12:00:00 19,6 14,3 - - 13 7 W 1024,1 35 0,0
15.09.2019 11:00:00 18,9 13,6 - - 13 7 W 1024,3 35 0,0
15.09.2019 10:00:00 16,6 12,5 15,7 16,0 9 5 W 1024,6 45 0,0
15.09.2019 09:00:00 15,1 11,5 - - 8 4 SW 1024,4 40 0,0
15.09.2019 08:00:00 13,0 10,3 - - 8 4 SSW 1024,2 35 0,0
15.09.2019 07:00:00 11,5 9,2 - - 9 5 S 1024,0 45 0,0
15.09.2019 06:00:00 11,1 8,9 - - 8 4 SSW 1024,1 45 0,0
15.09.2019 05:00:00 10,7 9,3 - - 5 3 SSW 1024,5 35 0,0
15.09.2019 04:00:00 10,3 9,2 - - 5 3 S 1024,9 23 0,0
15.09.2019 03:00:00 10,5 9,0 - - 5 3 SSE 1025,0 21 0,0
15.09.2019 02:00:00 11,7 9,8 - - 9 5 S 1025,9 29 0,0
15.09.2019 01:00:00 10,0 7,1 - - 5 3 SE 1026,2 27 0,0
15.09.2019 00:00:00 13,0 8,7 - - 5 3 SW 1026,5 45 0,0
14.09.2019 23:00:00 13,3 8,5 - - 5 3 SSW 1027,1 35 0,0
14.09.2019 22:00:00 13,6 8,4 - - 5 3 SSW 1027,3 40 0,0
14.09.2019 21:00:00 15,0 8,8 - - 8 4 SSW 1027,7 50 0,0
14.09.2019 20:00:00 16,1 9,1 - - 9 5 S 1027,7 30 0,0
14.09.2019 19:00:00 18,1 8,7 - - 8 4 SSW 1027,9 40 0,0
14.09.2019 18:00:00 19,5 8,0 - - 9 5 SSW 1028,1 45 0,0
14.09.2019 17:00:00 19,7 7,6 - - 9 5 SSW 1028,6 40 0,0
14.09.2019 16:00:00 21,2 7,2 - - 9 5 SW 1029,4 30 0,0
14.09.2019 15:00:00 20,5 8,3 - - 9 5 SSW 1030,3 35 0,0
14.09.2019 14:00:00 19,2 7,7 - - 9 5 SW 1031,1 45 0,0
14.09.2019 13:00:00 19,0 9,2 - - 9 5 SSW 1032,3 30 0,0
14.09.2019 12:00:00 17,8 9,2 - - 11 6 SSW 1033,1 29 0,0
14.09.2019 11:00:00 16,3 8,7 - - 13 7 S 1033,6 35 0,0
14.09.2019 10:00:00 13,8 9,6 15,7 16,2 8 4 S 1034,3 26 0,0
14.09.2019 09:00:00 10,2 9,3 - - 8 4 S 1034,3 15 0,0
14.09.2019 08:00:00 6,7 6,7 - - 4 2 S 1034,8 15 0,0
14.09.2019 07:00:00 4,6 4,5 - - 4 2 S 1034,9 13 0,0
14.09.2019 06:00:00 4,9 4,8 - - 4 2 S 1035,1 11 0,0
14.09.2019 05:00:00 4,8 4,6 - - 2 1 NW 1035,3 10 0,0
14.09.2019 04:00:00 5,8 5,8 - - 4 2 NNW 1035,8 9 0,0
14.09.2019 03:00:00 5,7 5,3 - - 0 0 N 1036,3 20 0,0
14.09.2019 02:00:00 6,7 6,4 - - 2 1 NW 1036,3 15 0,0
14.09.2019 01:00:00 7,7 6,6 - - 5 3 NW 1036,7 24 0,0
14.09.2019 00:00:00 8,2 7,5 - - 4 2 N 1036,6 22 0,0
13.09.2019 23:00:00 9,3 7,6 - - 5 3 NNW 1036,9 26 0,0
13.09.2019 22:00:00 10,0 7,3 - - 5 3 N 1036,9 27 0,0
13.09.2019 21:00:00 11,3 7,5 - - 5 3 N 1036,6 40 0,0
13.09.2019 20:00:00 13,3 7,4 - - 5 3 NNW 1036,0 40 0,0
13.09.2019 19:00:00 14,9 7,7 - - 8 4 N 1035,8 30 0,0
13.09.2019 18:00:00 16,7 7,6 - - 11 6 N 1035,8 45 0,0
13.09.2019 17:00:00 17,7 8,0 - - 11 6 NNW 1035,6 45 0,0
13.09.2019 16:00:00 17,5 8,2 - - 15 8 N 1035,8 30 0,0
13.09.2019 15:00:00 17,8 8,7 - - 13 7 N 1035,8 40 0,0
13.09.2019 14:00:00 17,5 7,9 - - 9 5 NNW 1035,8 50 0,0
13.09.2019 13:00:00 16,6 8,7 - - 9 5 N 1036,1 30 0,0
13.09.2019 12:00:00 15,4 9,3 - - 13 7 N 1036,1 27 0,0
13.09.2019 11:00:00 15,0 10,4 - - 13 7 N 1036,3 22 0,0
13.09.2019 10:00:00 13,4 9,6 16,0 16,2 13 7 N 1036,1 26 0,0
13.09.2019 09:00:00 11,7 9,3 - - 9 5 NNW 1035,5 29 0,0
13.09.2019 08:00:00 9,8 9,0 - - 4 2 NNW 1034,7 18 0,0
13.09.2019 07:00:00 8,9 8,4 - - 9 5 WNW 1034,0 18 0,0
13.09.2019 06:00:00 8,4 8,2 - - 4 2 WNW 1033,6 23 0,0
13.09.2019 05:00:00 9,2 8,0 - - 4 2 W 1032,8 19 0,0
13.09.2019 04:00:00 10,8 8,7 - - 9 5 WNW 1032,3 26 0,0
13.09.2019 03:00:00 11,6 9,2 - - 13 7 WNW 1031,5 30 0,0
13.09.2019 02:00:00 12,0 9,7 - - 13 7 NW 1030,9 26 0,0
13.09.2019 01:00:00 12,8 10,9 - - 9 5 WNW 1030,4 25 0,0
13.09.2019 00:00:00 14,0 11,0 - - 22 12 NW 1029,5 45 0,0
12.09.2019 23:00:00 15,2 13,6 - - 13 7 NW 1028,6 40 0,4
12.09.2019 22:00:00 17,9 15,1 - - 9 5 SW 1027,3 50 0,0
12.09.2019 21:00:00 18,1 14,5 - - 11 6 SW 1026,5 30 0,0
12.09.2019 20:00:00 18,6 13,9 - - 11 6 SW 1025,9 35 0,0
12.09.2019 19:00:00 19,1 12,9 - - 13 7 SW 1025,1 29 0,0
12.09.2019 18:00:00 19,8 12,9 - - 11 6 SW 1025,0 35 0,0
12.09.2019 17:00:00 20,7 13,2 - - 13 7 SW 1024,4 30 0,0
12.09.2019 16:00:00 22,0 14,8 - - 16 9 SW 1024,1 50 0,0
12.09.2019 15:00:00 22,2 15,6 - - 13 7 SW 1024,2 35 0,0
12.09.2019 14:00:00 20,5 15,3 - - 13 7 SSW 1024,7 40 0,0
12.09.2019 13:00:00 20,4 16,3 - - 16 9 SSW 1024,8 45 0,0
12.09.2019 12:00:00 19,1 15,6 - - 21 11 SSW 1025,2 50 0,0
12.09.2019 11:00:00 18,4 14,9 - - 18 10 SSW 1025,2 40 0,0
12.09.2019 10:00:00 16,9 14,9 15,9 16,2 13 7 SSW 1025,4 35 0,0
12.09.2019 09:00:00 16,0 13,4 - - 9 5 SSW 1024,9 23 0,0
12.09.2019 08:00:00 13,4 12,5 - - 11 6 S 1024,4 11 0,0
12.09.2019 07:00:00 11,3 10,7 - - 13 7 S 1024,5 11 0,0
12.09.2019 06:00:00 12,2 11,2 - - 9 5 S 1023,9 13 0,0
12.09.2019 05:00:00 12,1 12,0 - - 9 5 SSW 1023,8 14 0,0

tt = temperature
td = dewpoint
tt -20cm = temperature -20cm
tt -100cm = temperature -100cm
ff = wind speed
dd = wind direction
ppp = reduced air pressure
vv = visibility
rr = precipitation

Next stations